Wind_Speed
6 5 4 3 2 3 4 7 9 11 13 14 15 16 17 18 18 18 17 16 15 14 12 10 8 8 10 11 13 16 19 21 22 24 25 25 26 27 26 26 27 26 26
7 6 5 3 2 3 4 6 9 11 13 14 15 16 17 18 18 18 18 17 16 14 13 10 7 6 6 8 10 13 15 19 21 22 24 24 25 26 27 27 28 27 27
7 7 6 4 3 3 4 6 8 10 12 14 15 16 17 18 18 18 18 17 16 15 13 11 8 6 4 5 8 10 13 15 18 21 22 23 24 26 27 28 29 29 29
8 8 7 5 4 3 4 6 8 10 12 14 15 16 17 17 17 18 18 18 17 15 14 11 9 7 5 4 5 8 10 13 15 19 21 22 22 25 27 28 30 30 30
9 9 7 5 4 4 5 6 8 10 12 13 15 16 16 17 17 17 18 18 17 16 14 12 10 8 6 4 4 7 9 11 13 16 19 21 21 23 26 28 30 31 31
10 9 8 6 5 5 5 6 8 10 11 13 15 16 16 16 17 17 17 18 17 16 15 13 11 9 7 5 4 4 6 9 11 14 16 19 21 22 25 27 29 31 31
11 10 8 7 7 6 6 7 8 9 11 13 14 15 16 16 16 16 17 17 17 16 16 14 12 10 8 7 6 5 5 7 9 12 14 17 19 21 23 25 28 29 31
11 10 9 8 7 7 7 7 8 9 11 12 14 15 15 16 16 16 16 16 16 16 16 15 13 11 10 8 7 6 5 6 7 10 12 14 17 20 22 24 26 28 29
12 11 10 9 8 7 7 8 9 10 11 12 13 14 15 15 15 15 15 16 16 16 15 15 13 12 10 9 8 7 6 5 6 8 10 12 15 17 20 22 23 26 28
13 12 11 10 9 8 8 8 9 10 11 12 13 13 14 15 15 15 15 15 15 15 15 14 13 12 11 9 8 7 6 6 5 6 8 10 12 14 17 20 21 23 25
14 13 12 11 10 9 8 9 9 10 10 11 12 13 13 14 14 15 15 15 15 15 15 14 14 13 12 10 9 8 7 6 5 6 7 8 10 12 15 17 20 22 24
16 15 14 12 11 10 9 9 9 10 10 11 11 12 13 13 14 14 15 15 15 15 15 15 14 13 12 11 10 9 8 7 6 6 7 8 9 11 13 15 18 20 22
17 16 15 14 12 11 10 10 10 10 10 10 11 11 12 13 14 14 15 15 15 15 15 15 14 14 13 12 11 10 9 8 7 7 7 7 8 10 11 13 16 18 20
18 17 16 15 14 12 11 11 10 10 10 10 10 11 12 12 13 14 15 15 15 15 15 15 15 14 13 13 12 11 9 9 8 7 7 7 8 9 11 12 14 16 19
19 18 17 16 15 14 13 12 11 11 10 10 10 11 11 12 13 14 15 15 15 15 16 16 15 15 14 13 13 12 11 10 10 9 8 8 8 9 10 12 13 15 17
21 20 19 18 17 15 14 13 12 12 11 11 11 11 11 12 13 14 15 15 15 15 16 16 16 15 15 14 13 12 12 11 11 10 9 9 9 10 10 11 12 14 15
21 21 20 19 18 17 16 14 13 13 12 12 11 11 12 12 13 14 15 15 15 15 15 16 16 16 15 14 13 13 12 12 11 11 10 10 10 11 11 12 12 13 14
22 21 21 20 19 18 17 16 15 14 13 13 12 12 12 12 13 14 15 15 15 15 16 16 16 16 16 15 14 13 13 13 12 12 11 11 11 12 12 13 13 14 14
22 22 21 21 20 19 18 17 16 16 15 14 14 13 13 13 13 14 15 15 16 16 16 17 17 17 16 15 15 14 14 14 13 13 13 13 13 13 13 13 14 14 15
23 23 22 22 21 21 20 19 18 17 17 16 15 15 14 14 14 15 15 16 16 16 17 17 18 18 17 16 16 16 16 15 15 15 14 14 15 14 14 14 15 15 15
24 24 24 23 23 22 21 20 20 19 18 18 17 16 16 15 16 16 16 16 17 17 18 18 19 19 18 18 17 17 17 17 17 17 16 16 16 16 15 15 16 16 16
25 25 25 25 25 24 23 22 22 21 20 19 19 18 17 17 17 17 17 17 18 18 19 19 20 20 20 19 19 19 19 19 19 19 18 18 17 17 17 16 16 17 17
27 27 27 27 26 25 25 24 23 23 22 21 21 20 19 18 18 18 18 18 19 19 20 20 21 21 21 20 20 20 20 20 20 20 20 19 19 19 18 18 18 18 18
28 28 28 28 28 27 27 26 25 25 24 23 23 22 21 20 20 20 20 20 20 21 21 22 22 22 22 22 22 21 21 21 21 21 21 21 20 20 20 20 19 19 19
30 30 30 30 30 29 29 28 27 27 26 26 25 24 23 22 22 21 21 21 21 22 23 23 23 23 23 23 23 23 23 23 23 22 22 22 22 21 21 21 21 20 20
33 32 32 32 32 31 31 30 30 29 29 28 27 26 25 24 24 23 23 23 23 23 24 24 25 25 25 25 25 25 25 24 24 24 24 23 23 22 22 22 22 22 22
Wind_Direction
253 252 248 256 295 330 352 1 4 3 3 3 2 3 2 1 1 1 360 358 354 350 341 327 310 286 267 254 243 237 233 232 230 227 227 227 227 226 223 222 222 221 221
246 242 237 248 276 314 346 356 0 1 3 3 4 4 4 3 3 4 4 3 2 360 356 346 331 310 281 260 245 237 233 232 230 228 226 227 226 225 224 223 224 223 223
239 235 235 245 267 301 337 349 353 357 0 2 3 3 3 3 4 5 6 6 5 4 2 360 353 339 309 269 247 236 233 233 233 229 228 229 228 225 224 224 225 225 225
234 231 233 242 263 291 325 340 347 353 357 359 360 1 1 2 4 5 7 8 8 7 6 3 1 356 340 294 256 244 238 235 233 231 230 230 230 228 225 225 225 225 227
232 228 231 243 262 284 312 332 342 349 353 356 358 359 360 1 2 5 7 8 9 10 9 8 4 1 355 333 277 254 247 240 236 234 232 232 232 231 229 227 227 227 228
230 228 232 245 261 279 303 324 336 344 349 352 355 358 360 1 2 4 6 8 9 11 12 10 8 5 1 354 328 285 256 245 241 238 235 235 235 234 232 231 229 229 230
229 228 234 247 260 276 297 316 329 339 345 350 353 356 358 0 2 4 5 8 9 10 11 11 10 8 4 354 340 321 284 257 247 242 240 239 239 237 236 236 234 233 232
228 229 234 246 258 274 292 309 323 334 341 346 350 355 358 360 2 3 5 6 8 8 9 9 9 7 4 357 347 333 306 275 259 251 246 242 242 239 238 239 238 238 238
228 229 235 245 256 271 288 304 317 328 336 342 347 352 356 358 0 2 3 4 5 6 7 7 8 6 3 359 352 340 323 295 273 261 251 247 244 240 239 239 239 240 240
230 231 237 244 254 267 284 300 313 324 332 338 343 349 353 355 358 360 1 1 2 2 3 5 6 6 3 359 353 346 330 310 290 273 259 251 243 239 239 239 239 240 241
231 234 238 243 252 263 279 295 308 320 329 336 341 346 350 353 356 357 358 359 359 360 0 0 1 2 2 359 353 348 343 324 303 286 270 258 247 244 241 240 240 240 241
233 235 239 243 249 260 274 289 302 314 324 332 339 344 347 350 353 355 356 357 357 357 356 356 357 357 356 355 352 346 342 333 316 297 280 266 256 252 247 243 242 242 243
234 236 240 242 247 256 269 283 296 307 317 325 332 339 344 348 351 352 352 353 353 354 354 352 352 353 353 351 349 343 339 335 326 310 292 277 267 261 256 252 248 246 247
236 237 240 242 246 254 264 276 288 300 309 318 326 332 338 343 347 349 349 349 350 350 351 351 350 349 348 348 347 342 337 334 328 318 305 291 280 273 266 260 256 253 251
236 238 240 243 247 252 260 270 281 292 300 309 318 325 332 337 341 344 346 346 346 346 347 347 348 347 345 344 343 340 338 334 329 320 310 301 292 284 276 268 263 260 258
236 239 241 243 247 252 258 265 275 284 292 300 309 317 324 330 335 339 341 342 344 344 344 344 345 345 343 340 338 336 334 334 330 323 314 306 300 294 287 280 274 270 266
239 239 241 243 246 251 256 262 270 278 285 291 300 309 316 322 328 332 335 337 339 340 341 341 342 342 341 339 335 333 331 329 328 325 317 310 303 298 294 289 283 278 275
241 240 241 244 247 251 255 260 267 273 279 285 292 300 308 315 321 326 329 332 334 336 337 337 338 339 339 337 335 331 328 325 322 320 316 310 304 298 293 290 288 284 279
241 240 242 244 247 250 254 259 264 269 274 279 286 293 300 307 314 320 324 327 328 330 331 333 333 333 333 332 330 327 325 323 319 315 312 309 305 300 294 290 288 286 283
242 242 243 245 247 249 253 257 261 265 270 274 280 285 292 300 306 312 319 324 325 326 326 328 328 328 327 326 324 323 321 318 317 314 310 306 303 300 295 291 288 286 286
244 244 245 246 247 249 252 256 259 262 266 270 274 280 286 293 299 305 312 317 321 322 323 324 325 325 324 322 320 318 316 315 313 312 309 305 302 300 296 292 289 287 287
245 245 246 246 246 248 251 254 257 260 264 267 270 275 280 287 293 299 305 311 314 317 319 320 322 323 321 319 317 315 313 312 311 310 309 305 300 298 297 294 291 289 288
245 245 245 244 245 247 250 253 256 259 261 264 267 271 276 281 287 293 299 305 309 312 315 317 318 319 319 318 316 314 312 311 310 308 307 305 301 297 294 292 292 290 289
247 245 245 245 246 247 249 251 254 257 259 262 264 268 272 277 283 289 294 299 304 308 311 313 315 315 316 316 315 312 310 308 307 306 305 303 300 297 294 291 290 290 289
249 247 246 246 247 248 249 251 253 256 258 260 263 266 270 274 279 284 290 295 300 304 308 310 311 312 313 313 312 311 309 307 305 304 303 301 299 296 293 291 290 290 289
250 249 248 248 249 249 250 251 253 255 257 259 261 264 267 271 276 281 286 291 296 300 304 306 308 308 309 310 310 310 309 307 305 304 302 300 298 296 293 291 290 289 289
Height
5855 5855 5855 5854 5853 5851 5850 5847 5844 5841 5838 5834 5830 5826 5822 5817 5813 5808 5804 5799 5795 5791 5788 5786 5784 5783 5783 5783 5785 5787 5789 5792 5796 5799 5803 5806 5810 5814 5818 5822 5825 5829 5833
5854 5854 5854 5853 5852 5851 5849 5846 5844 5841 5837 5834 5830 5826 5822 5817 5813 5808 5804 5799 5795 5791 5788 5785 5783 5781 5781 5781 5782 5784 5786 5789 5791 5795 5798 5802 5806 5809 5813 5816 5820 5824 5828
5852 5852 5852 5852 5851 5849 5848 5846 5843 5840 5837 5833 5829 5825 5821 5817 5812 5808 5804 5799 5795 5791 5787 5784 5782 5781 5780 5780 5780 5781 5783 5785 5787 5790 5793 5797 5801 5804 5808 5811 5815 5819 5823
5850 5851 5851 5850 5850 5848 5847 5845 5842 5839 5836 5833 5829 5825 5821 5817 5812 5808 5804 5799 5795 5791 5788 5785 5782 5781 5779 5779 5779 5780 5781 5782 5784 5786 5789 5793 5795 5799 5803 5806 5810 5814 5817
5849 5849 5849 5849 5848 5847 5846 5844 5841 5838 5835 5832 5828 5824 5820 5816 5812 5808 5804 5800 5795 5792 5788 5785 5782 5780 5779 5778 5778 5778 5779 5780 5781 5783 5785 5788 5791 5794 5797 5801 5804 5808 5812
5847 5847 5847 5847 5847 5846 5844 5842 5840 5838 5834 5831 5828 5824 5820 5816 5812 5808 5804 5800 5796 5792 5788 5785 5783 5780 5779 5778 5777 5776 5777 5777 5778 5780 5782 5784 5787 5789 5792 5795 5798 5802 5805
5844 5845 5846 5846 5845 5844 5843 5841 5839 5836 5834 5830 5827 5823 5819 5815 5812 5808 5804 5800 5796 5792 5789 5786 5783 5780 5779 5777 5776 5775 5775 5775 5776 5777 5778 5780 5782 5784 5787 5789 5792 5795 5799
5842 5843 5843 5844 5843 5843 5842 5840 5838 5835 5832 5829 5826 5822 5819 5815 5811 5808 5804 5800 5796 5793 5789 5786 5783 5781 5778 5777 5775 5774 5773 5773 5774 5774 5775 5777 5778 5780 5782 5784 5787 5790 5793
5840 5841 5841 5842 5841 5841 5840 5838 5836 5834 5831 5828 5825 5821 5818 5814 5811 5807 5804 5800 5797 5793 5790 5786 5783 5781 5778 5776 5774 5773 5772 5771 5771 5772 5772 5773 5774 5775 5777 5779 5782 5785 5787
5837 5838 5839 5839 5839 5839 5838 5836 5835 5832 5830 5827 5824 5821 5817 5814 5810 5807 5803 5800 5797 5793 5790 5786 5783 5781 5778 5776 5774 5772 5770 5769 5769 5769 5769 5770 5770 5771 5773 5775 5777 5779 5781
5834 5835 5836 5836 5837 5836 5836 5834 5833 5831 5828 5825 5822 5819 5816 5813 5810 5806 5803 5800 5796 5793 5790 5786 5783 5780 5778 5775 5773 5771 5769 5768 5767 5767 5767 5767 5767 5768 5769 5770 5772 5773 5775
5831 5832 5833 5833 5834 5834 5833 5832 5831 5829 5826 5824 5821 5818 5815 5812 5809 5805 5802 5799 5796 5792 5789 5786 5783 5780 5777 5775 5772 5770 5768 5767 5765 5764 5764 5764 5764 5764 5765 5766 5767 5768 5769
5827 5829 5829 5830 5830 5831 5830 5829 5828 5826 5824 5822 5819 5817 5814 5811 5808 5804 5801 5798 5795 5792 5788 5785 5782 5779 5777 5774 5772 5769 5767 5765 5764 5762 5761 5761 5761 5761 5761 5761 5761 5762 5763
5823 5825 5826 5826 5827 5827 5827 5826 5825 5824 5822 5820 5818 5815 5812 5809 5806 5803 5800 5797 5794 5791 5788 5784 5781 5778 5776 5773 5771 5768 5766 5764 5762 5760 5759 5758 5758 5757 5757 5757 5757 5757 5758
5819 5820 5822 5823 5823 5823 5823 5823 5822 5821 5819 5818 5816 5813 5811 5808 5805 5802 5799 5796 5793 5790 5786 5783 5780 5777 5774 5772 5769 5767 5765 5763 5761 5759 5758 5756 5755 5755 5754 5753 5753 5753 5753
5814 5816 5817 5818 5819 5819 5820 5819 5819 5818 5816 5815 5813 5811 5809 5806 5803 5800 5797 5794 5791 5788 5785 5782 5779 5776 5773 5771 5768 5766 5763 5761 5759 5757 5756 5754 5753 5752 5751 5750 5749 5748 5748
5809 5811 5812 5813 5814 5815 5815 5815 5815 5814 5813 5812 5810 5808 5806 5804 5801 5798 5795 5792 5789 5786 5783 5781 5777 5774 5772 5769 5766 5764 5762 5759 5757 5755 5753 5752 5750 5749 5748 5746 5745 5744 5743
5804 5805 5807 5808 5809 5810 5811 5811 5811 5810 5809 5808 5807 5805 5803 5801 5799 5796 5793 5790 5787 5784 5782 5779 5776 5773 5770 5767 5765 5762 5760 5757 5755 5753 5751 5749 5747 5746 5744 5743 5742 5740 5739
5798 5800 5801 5803 5804 5805 5805 5806 5806 5805 5805 5804 5803 5801 5799 5798 5795 5793 5790 5787 5785 5782 5779 5776 5773 5770 5768 5765 5762 5760 5757 5755 5753 5751 5748 5746 5744 5742 5741 5739 5738 5736 5735
5792 5794 5795 5797 5798 5799 5800 5800 5800 5800 5800 5799 5798 5797 5795 5794 5792 5789 5787 5784 5782 5779 5776 5774 5771 5768 5765 5762 5760 5757 5754 5752 5750 5747 5745 5743 5741 5739 5737 5735 5734 5732 5730
5786 5787 5789 5790 5791 5793 5793 5794 5794 5794 5794 5794 5793 5792 5791 5789 5787 5785 5783 5781 5778 5775 5773 5770 5767 5764 5762 5759 5756 5754 5751 5748 5746 5744 5741 5739 5737 5735 5733 5731 5729 5728 5726
5778 5780 5782 5783 5784 5786 5787 5787 5788 5788 5788 5788 5787 5786 5785 5784 5783 5781 5779 5776 5774 5772 5769 5766 5763 5761 5758 5755 5752 5750 5747 5744 5742 5739 5737 5735 5733 5731 5729 5727 5725 5723 5722
5771 5772 5774 5775 5777 5778 5779 5780 5781 5781 5781 5781 5781 5780 5780 5778 5777 5776 5774 5772 5769 5767 5764 5762 5759 5756 5753 5751 5748 5745 5743 5740 5737 5735 5732 5730 5728 5726 5724 5722 5720 5719 5717
5762 5764 5765 5767 5769 5770 5771 5772 5773 5774 5774 5774 5774 5774 5773 5772 5771 5770 5768 5766 5764 5762 5759 5757 5754 5751 5748 5746 5743 5740 5738 5735 5732 5730 5727 5725 5722 5720 5718 5717 5715 5713 5712
5754 5755 5757 5758 5760 5761 5762 5764 5765 5765 5766 5766 5766 5766 5766 5765 5764 5763 5762 5760 5758 5756 5754 5751 5748 5746 5743 5740 5738 5735 5732 5729 5727 5724 5722 5719 5717 5715 5713 5711 5709 5707 5706
5744 5746 5747 5749 5750 5752 5753 5754 5756 5756 5757 5758 5758 5758 5758 5758 5757 5756 5755 5753 5751 5749 5747 5745 5742 5739 5737 5734 5731 5729 5726 5723 5720 5718 5716 5713 5711 5708 5706 5704 5703 5701 5699